This demonstration page uses our WeatherBlox Daily Observations layout. Learn more.

Left ArrowRight Arrow

44.89941, -97.11507

Hourly Observations for July 5, 2016

Temp ( °F °C ) Dew Point ( °F °C ) Humidity (%) Winds ( mph kmh ) Pressure ( in mb ) Visibility ( mi km ) Precip ( " mm )
12:53 am 00:53 Clear 72 22.2 67 19.4 84 84 NE 13 20 29.71 1006 10 16 0.00 0.00
1:53 am 01:53 Mostly Cloudy 72 22.2 67 19.4 84 84 NNE 8 13 29.74 1007 10 16 0.00 0.00
2:53 am 02:53 Partly Cloudy 71 21.7 64 17.8 79 79 SE 9 15 29.73 1007 10 16 0.00 0.00
3:53 am 03:53 Mostly Clear 71 21.7 63 17.2 76 76 SE 10 17 29.72 1006 10 16 0.00 0.00
4:53 am 04:53 Clear 70 21.1 66 18.9 87 87 SE 9 15 29.69 1006 10 16 0.00 0.00
5:53 am 05:53 Mostly Sunny 70 21.1 67 19.4 90 90 SE 9 15 29.69 1005 8 13 0.00 0.00
6:32 am 06:32 Mostly Cloudy 70 21.1 67 19.4 90 90 E 10 17 29.68 1005 7 11 0.00 0.00
6:53 am 06:53 Cloudy 70 21.1 66 18.9 87 87 E 9 15 29.71 1006 9 14 0.00 0.00
7:07 am 07:07 Cloudy with Nearby Thunderstorms 70 21.1 66 18.9 87 87 E 12 19 29.74 1007 8 13 0.00 0.00
7:27 am 07:27 Cloudy with Thunderstorms 69 20.6 65 18.3 87 87 E 10 17 29.74 1007 9 14 0.00 0.03
7:50 am 07:50 Cloudy with Nearby Thunderstorms 68 20 64 18 88 88 E 10 17 29.71 1006 10 16 0.01 0.25
7:53 am 07:53 Cloudy with Nearby Thunderstorms 68 20 65 18.3 90 90 E 14 22 29.72 1006 10 16 0.01 0.25
8:02 am 08:02 Partly Cloudy 69 20.6 65 18.3 87 87 ESE 15 24 29.68 1005 10 16 0.00 0.00
8:53 am 08:53 Mostly Sunny 73 22.8 68 20 84 84 SSE 15 24 29.70 1006 10 16 0.00 0.00
9:24 am 09:24 Mostly Cloudy 75 23.9 68 20 79 79 SSE 18 30 29.65 1004 10 16 0.00 0.00
9:43 am 09:43 Partly Cloudy 75 23.9 69 20.6 82 82 SSE 14 22 29.62 1003 10 16 0.00 0.00
9:53 am 09:53 Mostly Sunny 76 24.4 69 20.6 79 79 SE 15 24 29.67 1005 10 16 0.00 0.00
10:53 am 10:53 Sunny 80 26.7 70 21.1 71 71 S 18 30 29.67 1005 10 16 0.00 0.00
11:53 am 11:53 Mostly Sunny 83 28.3 70 21.1 65 65 SSE 9 15 29.67 1005 10 16 0.00 0.00
12:53 pm 12:53 Sunny 86 30 70 21.1 59 59 SW 9 15 29.68 1005 10 16 0.00 0.00
1:53 pm 13:53 Mostly Cloudy 89 31.7 71 21.7 55 55 S 8 13 29.66 1004 10 16 0.00 0.00
2:53 pm 14:53 Mostly Cloudy 87 30.6 71 21.7 59 59 N 7 11 29.65 1004 10 16 0.00 0.00
3:53 pm 15:53 Mostly Cloudy 87 30.6 71 21.7 59 59 N 13 20 29.65 1004 10 16 0.00 0.00
4:21 pm 16:21 Cloudy with Thunderstorms 79 26.1 70 21.1 74 74 NNE 21 33 29.59 1002 10 16 0.02 0.51
4:53 pm 16:53 Partly Cloudy with Thunderstorms 78 25.6 68 20 71 71 N 20 31 29.67 1005 10 16 0.02 0.51
5:12 pm 17:12 Mostly Cloudy with Nearby Thunderstorms 77 25 68 20 74 74 NNE 14 22 29.65 1004 10 16 0.00 0.00
5:53 pm 17:53 Mostly Cloudy with Nearby Thunderstorms 74 23.3 66 18.9 76 76 NE 14 22 29.70 1006 10 16 0.01 0.25
6:00 pm 18:00 Mostly Cloudy with Light Rain 74 23.3 66 18.9 76 76 ENE 17 28 29.62 1003 10 16 0.00 0.03
6:28 pm 18:28 Mostly Cloudy 73 22.8 65 18.3 76 76 NNE 17 28 29.62 1003 10 16 0.00 0.03
6:53 pm 18:53 Sunny 75 23.9 63 17.2 66 66 NNE 21 33 29.67 1005 10 16 0.00 0.03
7:53 pm 19:53 Sunny 75 23.9 64 17.8 69 69 NNE 14 22 29.69 1005 10 16 0.00 0.00
8:53 pm 20:53 Sunny 72 22.2 62 16.7 71 71 NNE 10 17 29.74 1007 10 16 0.00 0.00
9:53 pm 21:53 Clear 68 20 62 16.7 81 81 N 7 11 29.78 1009 10 16 0.00 0.00
10:53 pm 22:53 Clear 68 20 62 16.7 81 81 NNW 6 9 29.80 1009 10 16 0.00 0.00
11:53 pm 23:53 Partly Cloudy 67 19.4 61 16.1 81 81 N 5 7 29.81 1010 10 16 0.00 0.00

Powered by AerisWeather